Overview Statistics Trail Chart Weather Telemetry Raw packets
 

This is the latest recevied weather packets stored in our database for station/object KK7MLS-13. If no packets are shown the sender has not sent any weather packets the latest 10 day(s).

<< 41 42 43 44 45 46 47 >>
Time Temp. Humidity Pressure Rain* Wind** Luminosity Snow
1788400448 15.56° C 92% 1008.5 hPa 0 mm - 60 W/m² -
1788400143 15.56° C 91% 1008.2 hPa 0 mm - 56 W/m² -
1788399837 15.56° C 91% 1008.2 hPa 0 mm - 56 W/m² -
1788399533 15.56° C 93% 1008.2 hPa 1.78 mm - 55 W/m² -
1788399232 15.56° C 93% 1008.2 hPa 1.78 mm - 87 W/m² -
1788398931 15.56° C 94% 1008.3 hPa 0 mm - 79 W/m² -
1788398625 15.56° C 94% 1008.2 hPa 1.27 mm - 70 W/m² -
1788398324 15.56° C 93% 1008.2 hPa 1.27 mm - 28 W/m² -
1788398024 15.56° C 93% 1008.3 hPa 0 mm - 30 W/m² -
1788397719 15.56° C 92% 1008.1 hPa 0 mm - 37 W/m² -
1788397415 15.56° C 92% 1008.1 hPa 0 mm - 42 W/m² -
1788397113 15.56° C 91% 1008.1 hPa 0 mm - 22 W/m² -
1788396808 15.56° C 91% 1008.1 hPa 0 mm - 23 W/m² -
1788396504 15.56° C 91% 1008 hPa 0 mm - 24 W/m² -
1788396199 15.56° C 90% 1007.9 hPa 0 mm - 48 W/m² -
1788395896 15.56° C 91% 1008 hPa 1.78 mm - 90 W/m² -
1788395590 15.56° C 92% 1008 hPa 1.78 mm - 110 W/m² -
1788395289 15.56° C 90% 1008 hPa 0 mm - 69 W/m² -
1788394989 15.56° C 88% 1007.7 hPa 0 mm - 63 W/m² -
1788394684 16.11° C 92% 1007.6 hPa 0 mm - 82 W/m² -
1788394379 15.56° C 94% 1007.9 hPa 0 mm - 145 W/m² -
1788394074 15.56° C 93% 1007.6 hPa 0 mm - 186 W/m² -
1788393775 15° C 94% 1007.7 hPa 1.78 mm - 165 W/m² -
1788393472 15° C 94% 1007.8 hPa 1.78 mm - 108 W/m² -
1788393169 15° C 94% 1007.8 hPa 0 mm - 69 W/m² -

* Rain latest hour (hover to see other rain measurements)
** Current wind speed in m/s (hover to see current wind gust speed)